SVA569 OMDB-OEJN

Flight info

Callsign SVA569
Flight time 2h 40m
Altitude 34000
Route KUTLI L519 ATUDO M318 GOLGU M550 RIBOT DCT MIGMA DCT ITRUX Y511 ASMIS T218 IMGUT M309 VEMEM
Aircraft A320/M-SDE3FGHIRWY/LB1

Departure

Time 2026-04-24 14:26
Airport Dubai International Airport (OMDB)

Arrival

Time 2026-04-24 17:06
Airport King Abdulaziz International Airport (OEJN)
Time Latitude Longitude Altitude Speed Heading
2026-04-24 13:40 25.24918 55.35834 16 ft 0 kts 34°
2026-04-24 14:10 25.24905 55.35825 16 ft 2 kts 38°
2026-04-24 14:11 25.24893 55.35813 18 ft 2 kts 40°
2026-04-24 14:11 25.24880 55.35801 17 ft 2 kts 47°
2026-04-24 14:11 25.24862 55.35771 17 ft 2 kts 84°
2026-04-24 14:12 25.24864 55.35753 19 ft 2 kts 123°
2026-04-24 14:12 25.24873 55.35738 18 ft 2 kts 125°
2026-04-24 14:12 25.24875 55.35736 18 ft 0 kts 124°
2026-04-24 14:15 25.24869 55.35745 18 ft 4 kts 124°
2026-04-24 14:15 25.24841 55.35793 17 ft 9 kts 123°
2026-04-24 14:15 25.24810 55.35847 17 ft 9 kts 121°
2026-04-24 14:15 25.24774 55.35912 20 ft 10 kts 120°
2026-04-24 14:16 25.24732 55.35992 20 ft 13 kts 121°
2026-04-24 14:16 25.24690 55.36067 21 ft 12 kts 122°
2026-04-24 14:16 25.24648 55.36142 22 ft 11 kts 122°
2026-04-24 14:17 25.24532 55.36350 25 ft 16 kts 121°
2026-04-24 14:17 25.24476 55.36453 30 ft 15 kts 121°
2026-04-24 14:17 25.24510 55.36683 28 ft 18 kts 32°
2026-04-24 14:18 25.24622 55.36753 28 ft 19 kts 32°
2026-04-24 14:18 25.24728 55.36835 27 ft 18 kts 54°
2026-04-24 14:18 25.24698 55.36951 28 ft 15 kts 124°
2026-04-24 14:18 25.24661 55.37012 29 ft 13 kts 124°
2026-04-24 14:19 25.24615 55.37092 30 ft 15 kts 121°
2026-04-24 14:19 25.24547 55.37216 32 ft 19 kts 121°
2026-04-24 14:19 25.24484 55.37333 33 ft 16 kts 121°
2026-04-24 14:19 25.24430 55.37432 35 ft 14 kts 123°
2026-04-24 14:20 25.24371 55.37531 36 ft 18 kts 123°
2026-04-24 14:20 25.24312 55.37630 38 ft 11 kts 121°
2026-04-24 14:20 25.24276 55.37695 39 ft 8 kts 121°
2026-04-24 14:20 25.24266 55.37759 39 ft 10 kts 78°
2026-04-24 14:21 25.24311 55.37808 38 ft 5 kts 32°
2026-04-24 14:21 25.24358 55.37839 21 ft 3 kts 31°
2026-04-24 14:22 25.24395 55.37864 19 ft 13 kts 33°
2026-04-24 14:23 25.24474 55.37922 23 ft 16 kts 33°
2026-04-24 14:23 25.24572 55.37995 26 ft 16 kts 34°
2026-04-24 14:23 25.24650 55.38054 33 ft 10 kts 32°
2026-04-24 14:23 25.24653 55.38056 34 ft 0 kts 32°
2026-04-24 14:24 25.24664 55.38064 33 ft 7 kts 32°
2026-04-24 14:24 25.24731 55.38108 37 ft 12 kts 24°
2026-04-24 14:24 25.24783 55.38061 35 ft 7 kts 301°
2026-04-24 14:25 25.24829 55.37977 33 ft 31 kts 301°
2026-04-24 14:25 25.25071 55.37544 31 ft 98 kts 302°
2026-04-24 14:25 25.25525 55.36728 17 ft 149 kts 302°
2026-04-24 14:25 25.26128 55.35630 216 ft 173 kts 303°
2026-04-24 14:26 25.26747 55.34511 926 ft 171 kts 304°
2026-04-24 14:26 25.27389 55.33381 1439 ft 182 kts 304°
2026-04-24 14:26 25.28065 55.32185 1968 ft 185 kts 303°
2026-04-24 14:26 25.28742 55.30968 2471 ft 186 kts 302°
2026-04-24 14:27 25.29236 55.29646 2946 ft 189 kts 276°
2026-04-24 14:27 25.29058 55.28210 3353 ft 196 kts 247°
2026-04-24 14:27 25.28464 55.26841 3788 ft 199 kts 245°
2026-04-24 14:27 25.27853 55.25462 4256 ft 203 kts 241°
2026-04-24 14:28 25.26811 55.24313 4388 ft 227 kts 213°
2026-04-24 14:28 25.25395 55.23344 4605 ft 251 kts 216°
2026-04-24 14:28 25.23897 55.22218 5000 ft 267 kts 217°
2026-04-24 14:28 25.22358 55.21029 5660 ft 271 kts 217°
2026-04-24 14:29 25.20805 55.19827 6382 ft 275 kts 217°
2026-04-24 14:29 25.19221 55.18606 7037 ft 279 kts 217°
2026-04-24 14:29 25.17622 55.17383 7762 ft 280 kts 216°
2026-04-24 14:29 25.16013 55.16160 8513 ft 282 kts 216°
2026-04-24 14:30 25.14415 55.14949 9247 ft 283 kts 216°
2026-04-24 14:30 25.12788 55.13717 9981 ft 284 kts 216°
2026-04-24 14:30 25.11119 55.12453 10330 ft 302 kts 216°
2026-04-24 14:30 25.09324 55.11091 10452 ft 324 kts 216°
2026-04-24 14:31 25.07401 55.09634 10588 ft 345 kts 215°
2026-04-24 14:31 25.05382 55.08108 10893 ft 357 kts 215°
2026-04-24 14:31 25.03317 55.06551 11425 ft 362 kts 215°
2026-04-24 14:31 25.01229 55.04980 12024 ft 365 kts 215°
2026-04-24 14:32 24.99124 55.03395 12617 ft 368 kts 215°
2026-04-24 14:32 24.97001 55.01797 13188 ft 371 kts 215°
2026-04-24 14:32 24.94858 55.00184 13759 ft 375 kts 215°
2026-04-24 14:32 24.92691 54.98551 14250 ft 378 kts 215°
2026-04-24 14:33 24.90507 54.96904 14737 ft 382 kts 216°
2026-04-24 14:33 24.88302 54.95245 15207 ft 385 kts 215°
2026-04-24 14:33 24.86055 54.93614 15698 ft 389 kts 211°
2026-04-24 14:33 24.83672 54.92183 16171 ft 392 kts 210°
2026-04-24 14:34 24.81264 54.90747 16633 ft 395 kts 210°
2026-04-24 14:34 24.78833 54.89297 17073 ft 399 kts 210°
2026-04-24 14:34 24.76382 54.87835 17519 ft 402 kts 210°
2026-04-24 14:34 24.73911 54.86363 17962 ft 406 kts 210°
2026-04-24 14:35 24.71418 54.84879 18394 ft 409 kts 210°
2026-04-24 14:35 24.68907 54.83387 18785 ft 411 kts 210°
2026-04-24 14:35 24.66435 54.81881 19188 ft 413 kts 211°
2026-04-24 14:35 24.63941 54.80304 19605 ft 414 kts 212°
2026-04-24 14:36 24.61454 54.78694 20019 ft 416 kts 212°
2026-04-24 14:36 24.58964 54.77069 20431 ft 417 kts 212°
2026-04-24 14:36 24.56462 54.75439 20834 ft 419 kts 212°
2026-04-24 14:36 24.53944 54.73809 21228 ft 421 kts 212°
2026-04-24 14:37 24.51412 54.72180 21656 ft 422 kts 212°
2026-04-24 14:37 24.48877 54.70553 22070 ft 423 kts 212°
2026-04-24 14:37 24.46341 54.68928 22472 ft 425 kts 212°
2026-04-24 14:37 24.43767 54.67280 22866 ft 426 kts 212°
2026-04-24 14:38 24.41200 54.65636 23252 ft 428 kts 212°
2026-04-24 14:38 24.38625 54.63989 23572 ft 429 kts 212°
2026-04-24 14:38 24.36040 54.62337 23882 ft 431 kts 212°
2026-04-24 14:38 24.33442 54.60676 24177 ft 433 kts 212°
2026-04-24 14:39 24.30837 54.59013 24477 ft 434 kts 212°
2026-04-24 14:39 24.28221 54.57338 24777 ft 436 kts 213°
2026-04-24 14:39 24.25744 54.55438 25054 ft 435 kts 223°
2026-04-24 14:39 24.23677 54.53027 25315 ft 435 kts 234°
2026-04-24 14:40 24.22036 54.50249 25592 ft 435 kts 243°
2026-04-24 14:40 24.20591 54.47329 25855 ft 437 kts 242°
2026-04-24 14:40 24.19109 54.44413 26124 ft 439 kts 241°
2026-04-24 14:40 24.17602 54.41502 26389 ft 441 kts 241°
2026-04-24 14:41 24.16076 54.38577 26657 ft 442 kts 241°
2026-04-24 14:41 24.14549 54.35650 26907 ft 444 kts 241°
2026-04-24 14:41 24.13037 54.32741 27156 ft 446 kts 241°
2026-04-24 14:41 24.11507 54.29786 27417 ft 447 kts 241°
2026-04-24 14:42 24.09974 54.26815 27674 ft 449 kts 241°
2026-04-24 14:42 24.08438 54.23832 27925 ft 450 kts 241°
2026-04-24 14:42 24.06905 54.20853 28270 ft 449 kts 241°
2026-04-24 14:42 24.05371 54.17877 28625 ft 448 kts 241°
2026-04-24 14:43 24.03838 54.14909 28972 ft 448 kts 241°
2026-04-24 14:43 24.02304 54.11940 29314 ft 447 kts 241°
2026-04-24 14:43 24.00773 54.08982 29667 ft 447 kts 241°
2026-04-24 14:43 23.99242 54.06028 30000 ft 446 kts 241°
2026-04-24 14:44 23.97703 54.03087 30307 ft 445 kts 241°
2026-04-24 14:44 23.96157 54.00160 30606 ft 444 kts 241°
2026-04-24 14:44 23.94609 53.97236 30922 ft 443 kts 241°
2026-04-24 14:44 23.93062 53.94323 31246 ft 442 kts 241°
2026-04-24 14:45 23.91523 53.91424 31541 ft 441 kts 241°
2026-04-24 14:45 23.89987 53.88526 31835 ft 440 kts 241°
2026-04-24 14:45 23.88456 53.85633 32138 ft 439 kts 241°
2026-04-24 14:45 23.86928 53.82750 32454 ft 438 kts 242°
2026-04-24 14:46 23.85400 53.79870 32758 ft 438 kts 242°
2026-04-24 14:46 23.83892 53.77030 33055 ft 437 kts 242°
2026-04-24 14:46 23.82370 53.74162 33358 ft 436 kts 242°
2026-04-24 14:46 23.80853 53.71307 33698 ft 434 kts 242°
2026-04-24 14:47 23.79341 53.68461 33836 ft 434 kts 242°
2026-04-24 14:47 23.76310 53.62756 33865 ft 434 kts 242°
2026-04-24 14:48 23.73271 53.57060 33862 ft 434 kts 242°
2026-04-24 14:48 23.70237 53.51370 33861 ft 434 kts 242°
2026-04-24 14:49 23.67214 53.45667 33863 ft 434 kts 242°
2026-04-24 14:49 23.64192 53.39961 33862 ft 434 kts 242°
2026-04-24 14:50 23.61185 53.34297 33866 ft 434 kts 242°
2026-04-24 14:50 23.58153 53.28594 33863 ft 434 kts 242°
2026-04-24 14:51 23.55126 53.22899 33875 ft 433 kts 243°
2026-04-24 14:51 23.52136 53.17278 33879 ft 430 kts 243°
2026-04-24 14:52 23.49135 53.11649 33877 ft 429 kts 243°
2026-04-24 14:52 23.46142 53.06042 33875 ft 427 kts 243°
2026-04-24 14:53 23.43148 53.00453 33865 ft 427 kts 243°
2026-04-24 14:53 23.40159 52.94869 33853 ft 426 kts 243°
2026-04-24 14:54 23.37246 52.89246 33845 ft 426 kts 244°
2026-04-24 14:54 23.34403 52.83632 33840 ft 426 kts 244°
2026-04-24 14:55 23.32001 52.78900 33834 ft 426 kts 244°
2026-04-24 14:55 23.28630 52.72358 33826 ft 427 kts 244°
2026-04-24 14:56 23.25711 52.66717 33824 ft 428 kts 244°
2026-04-24 14:56 23.22800 52.61061 33822 ft 429 kts 244°
2026-04-24 14:57 23.19879 52.55392 33832 ft 429 kts 244°
2026-04-24 14:57 23.17331 52.49561 33830 ft 426 kts 253°
2026-04-24 14:58 23.15412 52.43469 33844 ft 426 kts 252°
2026-04-24 14:58 23.13481 52.37387 33842 ft 426 kts 252°
2026-04-24 14:59 23.11564 52.31344 33846 ft 425 kts 253°
2026-04-24 14:59 23.09635 52.25262 33837 ft 426 kts 252°
2026-04-24 15:00 23.07700 52.19169 33830 ft 427 kts 252°
2026-04-24 15:00 23.05758 52.13067 33831 ft 427 kts 252°
2026-04-24 15:01 23.03821 52.07007 33835 ft 427 kts 252°
2026-04-24 15:01 23.01864 52.00910 33821 ft 428 kts 252°
2026-04-24 15:02 22.99903 51.94787 33816 ft 430 kts 252°
2026-04-24 15:02 22.97939 51.88642 33820 ft 431 kts 252°
2026-04-24 15:03 22.96294 51.83535 33823 ft 432 kts 252°
2026-04-24 15:03 22.93977 51.76350 33834 ft 431 kts 252°
2026-04-24 15:04 22.92004 51.70208 33843 ft 431 kts 252°
2026-04-24 15:04 22.90031 51.64071 33845 ft 431 kts 252°
2026-04-24 15:05 22.88387 51.58976 33837 ft 431 kts 252°
2026-04-24 15:05 22.86406 51.52843 33844 ft 430 kts 252°
2026-04-24 15:06 22.84599 51.46652 33848 ft 428 kts 260°
2026-04-24 15:06 22.84261 51.40230 33849 ft 427 kts 270°
2026-04-24 15:07 22.84235 51.33822 33853 ft 427 kts 269°
2026-04-24 15:07 22.84195 51.27371 33838 ft 429 kts 269°
2026-04-24 15:08 22.84158 51.20904 33834 ft 429 kts 269°
2026-04-24 15:08 22.84114 51.14432 33832 ft 429 kts 269°
2026-04-24 15:09 22.84058 51.07956 33836 ft 430 kts 269°
2026-04-24 15:09 22.84006 51.01481 33838 ft 430 kts 269°
2026-04-24 15:10 22.83947 50.95003 33836 ft 430 kts 269°
2026-04-24 15:10 22.83885 50.88521 33837 ft 430 kts 269°
2026-04-24 15:11 22.83824 50.82034 33835 ft 431 kts 269°
2026-04-24 15:11 22.83762 50.75535 33830 ft 431 kts 269°
2026-04-24 15:12 22.83702 50.69018 33841 ft 432 kts 269°
2026-04-24 15:12 22.83602 50.59251 33847 ft 432 kts 269°
2026-04-24 15:13 22.83527 50.52751 33854 ft 431 kts 269°
2026-04-24 15:13 22.83455 50.46250 33852 ft 431 kts 269°
2026-04-24 15:14 22.83368 50.39760 33859 ft 430 kts 268°
2026-04-24 15:14 22.83282 50.33283 33874 ft 429 kts 268°
2026-04-24 15:15 22.83206 50.26817 33872 ft 428 kts 268°
2026-04-24 15:15 22.83133 50.20362 33866 ft 428 kts 268°
2026-04-24 15:16 22.83049 50.13916 33866 ft 427 kts 268°
2026-04-24 15:16 22.82956 50.07489 33864 ft 426 kts 268°
2026-04-24 15:17 22.82859 50.01073 33861 ft 425 kts 268°
2026-04-24 15:17 22.82759 49.94667 33863 ft 425 kts 268°
2026-04-24 15:18 22.82664 49.88267 33859 ft 424 kts 268°
2026-04-24 15:18 22.82570 49.81881 33857 ft 424 kts 268°
2026-04-24 15:19 22.82461 49.75502 33853 ft 423 kts 268°
2026-04-24 15:19 22.82357 49.69128 33844 ft 423 kts 268°
2026-04-24 15:20 22.82255 49.62746 33850 ft 423 kts 268°
2026-04-24 15:20 22.82142 49.56376 33849 ft 423 kts 268°
2026-04-24 15:21 22.82024 49.49995 33864 ft 423 kts 268°
2026-04-24 15:21 22.81912 49.43634 33868 ft 422 kts 268°
2026-04-24 15:22 22.81799 49.37316 33864 ft 421 kts 268°
2026-04-24 15:23 22.81622 49.27809 33858 ft 420 kts 268°
2026-04-24 15:23 22.81428 49.18303 33854 ft 420 kts 268°
2026-04-24 15:25 22.81141 49.03562 33842 ft 419 kts 268°
2026-04-24 15:26 22.80780 48.86680 33839 ft 420 kts 267°
2026-04-24 15:27 22.80355 48.67673 33846 ft 421 kts 267°
2026-04-24 15:29 22.79908 48.48644 33851 ft 421 kts 267°
2026-04-24 15:31 22.79363 48.26400 33848 ft 422 kts 267°
2026-04-24 15:33 22.78705 48.00961 33854 ft 423 kts 267°
2026-04-24 15:34 22.78252 47.84997 33854 ft 425 kts 267°
2026-04-24 15:35 22.77796 47.68982 33862 ft 426 kts 266°
2026-04-24 15:36 22.77609 47.62556 33866 ft 426 kts 266°
2026-04-24 15:36 22.77322 47.52935 33881 ft 426 kts 266°
2026-04-24 15:37 22.77126 47.46526 33885 ft 425 kts 266°
2026-04-24 15:37 22.76923 47.40126 33885 ft 425 kts 266°
2026-04-24 15:38 22.76721 47.33728 33895 ft 425 kts 266°
2026-04-24 15:38 22.76526 47.27333 33891 ft 425 kts 266°
2026-04-24 15:39 22.76327 47.20943 33890 ft 424 kts 266°
2026-04-24 15:39 22.76466 47.14545 33899 ft 426 kts 272°
2026-04-24 15:40 22.76974 47.08187 33896 ft 426 kts 272°
2026-04-24 15:40 22.77485 47.01798 33899 ft 425 kts 272°
2026-04-24 15:41 22.77996 46.95414 33898 ft 425 kts 272°
2026-04-24 15:41 22.78499 46.89037 33899 ft 424 kts 272°
2026-04-24 15:42 22.78992 46.82668 33904 ft 424 kts 272°
2026-04-24 15:42 22.79486 46.76294 33903 ft 424 kts 272°
2026-04-24 15:43 22.79973 46.69933 33897 ft 423 kts 272°
2026-04-24 15:43 22.80453 46.63616 33891 ft 423 kts 272°
2026-04-24 15:44 22.80936 46.57259 33906 ft 423 kts 272°
2026-04-24 15:44 22.81416 46.50905 33907 ft 423 kts 271°
2026-04-24 15:45 22.81896 46.44556 33922 ft 422 kts 272°
2026-04-24 15:45 22.82380 46.38221 33912 ft 420 kts 272°
2026-04-24 15:46 22.82770 46.32984 33916 ft 419 kts 271°
2026-04-24 15:46 22.83238 46.26687 33915 ft 418 kts 271°
2026-04-24 15:47 22.83703 46.20405 33904 ft 418 kts 271°
2026-04-24 15:47 22.84165 46.14118 33900 ft 417 kts 271°
2026-04-24 15:48 22.84623 46.07846 33889 ft 417 kts 271°
2026-04-24 15:48 22.85073 46.01573 33903 ft 418 kts 271°
2026-04-24 15:49 22.85299 45.98429 34185 ft 417 kts 271°
2026-04-24 15:49 22.85526 45.95307 34530 ft 413 kts 271°
2026-04-24 15:49 22.85749 45.92214 34921 ft 409 kts 272°
2026-04-24 15:49 22.85966 45.89157 35316 ft 405 kts 272°
2026-04-24 15:50 22.86180 45.86125 35654 ft 402 kts 272°
2026-04-24 15:50 22.86394 45.83107 35822 ft 401 kts 272°
2026-04-24 15:50 22.86816 45.77133 35867 ft 399 kts 272°
2026-04-24 15:51 22.87238 45.71157 35855 ft 397 kts 272°
2026-04-24 15:51 22.87654 45.65192 35861 ft 397 kts 272°
2026-04-24 15:52 22.88070 45.59227 35855 ft 396 kts 272°
2026-04-24 15:52 22.88483 45.53259 35863 ft 396 kts 272°
2026-04-24 15:53 22.88891 45.47294 35863 ft 396 kts 272°
2026-04-24 15:53 22.89294 45.41331 35862 ft 397 kts 272°
2026-04-24 15:54 22.89698 45.35362 35873 ft 397 kts 272°
2026-04-24 15:54 22.90104 45.29386 35864 ft 398 kts 272°
2026-04-24 15:55 22.90506 45.23402 35863 ft 398 kts 272°
2026-04-24 15:55 22.90903 45.17451 35860 ft 398 kts 272°
2026-04-24 15:56 22.91307 45.11453 35864 ft 398 kts 272°
2026-04-24 15:56 22.91710 45.05463 35870 ft 398 kts 272°
2026-04-24 15:57 22.92103 44.99467 35870 ft 398 kts 272°
2026-04-24 15:57 22.92489 44.93469 35864 ft 399 kts 272°
2026-04-24 15:58 22.92882 44.87461 35864 ft 399 kts 272°
2026-04-24 15:58 22.93274 44.81453 35865 ft 399 kts 272°
2026-04-24 15:59 22.93657 44.75481 35866 ft 399 kts 272°
2026-04-24 15:59 22.94040 44.69467 35866 ft 399 kts 272°
2026-04-24 16:00 22.94039 44.63456 35867 ft 398 kts 266°
2026-04-24 16:00 22.93773 44.57444 35858 ft 399 kts 266°
2026-04-24 16:01 22.93510 44.51417 35855 ft 400 kts 266°
2026-04-24 16:01 22.93247 44.45430 35851 ft 400 kts 266°
2026-04-24 16:02 22.92984 44.39386 35846 ft 401 kts 266°
2026-04-24 16:02 22.92716 44.33331 35844 ft 402 kts 266°
2026-04-24 16:03 22.92442 44.27276 35845 ft 402 kts 266°
2026-04-24 16:03 22.92164 44.21212 35843 ft 403 kts 266°
2026-04-24 16:04 22.91885 44.15142 35848 ft 403 kts 266°
2026-04-24 16:04 22.91606 44.09058 35854 ft 403 kts 266°
2026-04-24 16:05 22.91179 43.99937 35870 ft 403 kts 266°
2026-04-24 16:06 22.90751 43.90840 35872 ft 402 kts 266°
2026-04-24 16:07 22.90311 43.81777 35876 ft 403 kts 265°
2026-04-24 16:07 22.89877 43.72677 35887 ft 403 kts 265°
2026-04-24 16:08 22.89439 43.63582 35886 ft 402 kts 265°
2026-04-24 16:09 22.88995 43.54506 35915 ft 401 kts 265°
2026-04-24 16:09 22.88698 43.48477 35915 ft 400 kts 265°
2026-04-24 16:11 22.87939 43.33441 35930 ft 399 kts 265°
2026-04-24 16:11 22.87635 43.27470 35909 ft 399 kts 265°
2026-04-24 16:12 22.87160 43.18449 35936 ft 400 kts 265°
2026-04-24 16:13 22.86686 43.09427 35943 ft 400 kts 265°
2026-04-24 16:14 22.86051 42.97377 35932 ft 401 kts 265°
2026-04-24 16:14 22.85549 42.88288 35915 ft 403 kts 265°
2026-04-24 16:15 22.85059 42.79162 35928 ft 404 kts 265°
2026-04-24 16:16 22.84567 42.70020 35915 ft 405 kts 265°
2026-04-24 16:17 22.83719 42.54890 35964 ft 402 kts 265°
2026-04-24 16:18 22.83035 42.42786 35976 ft 402 kts 265°
2026-04-24 16:19 22.82519 42.33721 35982 ft 401 kts 265°
2026-04-24 16:20 22.82007 42.24718 35976 ft 401 kts 265°
2026-04-24 16:20 22.81471 42.15675 35983 ft 400 kts 264°
2026-04-24 16:21 22.80933 42.06636 35967 ft 401 kts 264°
2026-04-24 16:22 22.80576 42.00607 35967 ft 401 kts 264°
2026-04-24 16:22 22.80029 41.91547 35965 ft 402 kts 264°
2026-04-24 16:23 22.79607 41.85503 35970 ft 402 kts 263°
2026-04-24 16:24 22.78694 41.76468 35976 ft 402 kts 262°
2026-04-24 16:24 22.78082 41.70435 35968 ft 403 kts 262°
2026-04-24 16:25 22.77497 41.64423 35970 ft 404 kts 262°
2026-04-24 16:25 22.76921 41.58362 35978 ft 405 kts 262°
2026-04-24 16:26 22.76047 41.49256 35997 ft 404 kts 262°
2026-04-24 16:27 22.75159 41.40199 36013 ft 403 kts 262°
2026-04-24 16:27 22.74569 41.34171 36022 ft 402 kts 262°
2026-04-24 16:28 22.73244 41.28327 36014 ft 400 kts 249°
2026-04-24 16:28 22.70188 41.19960 36016 ft 400 kts 249°
2026-04-24 16:29 22.68135 41.14358 36004 ft 400 kts 249°
2026-04-24 16:30 22.64030 41.03185 36005 ft 398 kts 250°
2026-04-24 16:30 22.61981 40.97625 36013 ft 397 kts 250°
2026-04-24 16:31 22.59943 40.92085 36009 ft 395 kts 250°
2026-04-24 16:31 22.58249 40.87500 36005 ft 395 kts 249°
2026-04-24 16:32 22.56217 40.81991 35999 ft 394 kts 249°
2026-04-24 16:32 22.54187 40.76493 35996 ft 393 kts 249°
2026-04-24 16:33 22.52159 40.71006 35995 ft 393 kts 249°
2026-04-24 16:33 22.50123 40.65523 35984 ft 393 kts 249°
2026-04-24 16:34 22.48099 40.60077 35989 ft 392 kts 249°
2026-04-24 16:34 22.46067 40.54603 35993 ft 392 kts 249°
2026-04-24 16:35 22.44035 40.49135 35999 ft 392 kts 249°
2026-04-24 16:35 22.42000 40.43671 36012 ft 392 kts 248°
2026-04-24 16:36 22.39965 40.38211 36014 ft 391 kts 248°
2026-04-24 16:36 22.37934 40.32759 36005 ft 388 kts 248°
2026-04-24 16:37 22.35953 40.27454 35999 ft 377 kts 249°
2026-04-24 16:37 22.33995 40.22200 35907 ft 378 kts 249°
2026-04-24 16:38 22.33010 40.19563 35532 ft 379 kts 248°
2026-04-24 16:38 22.32022 40.16922 34988 ft 378 kts 248°
2026-04-24 16:38 22.31043 40.14314 34624 ft 372 kts 247°
2026-04-24 16:38 22.30071 40.11730 34202 ft 368 kts 247°
2026-04-24 16:39 22.29113 40.09183 33824 ft 362 kts 246°
2026-04-24 16:39 22.28172 40.06676 33347 ft 359 kts 246°
2026-04-24 16:39 22.27233 40.04178 32740 ft 359 kts 246°
2026-04-24 16:39 22.26169 40.01737 32077 ft 360 kts 240°
2026-04-24 16:40 22.24822 39.99458 31493 ft 360 kts 236°
2026-04-24 16:40 22.23445 39.97211 31073 ft 356 kts 236°
2026-04-24 16:40 22.22108 39.95021 30661 ft 351 kts 236°
2026-04-24 16:40 22.20768 39.92821 30142 ft 350 kts 236°
2026-04-24 16:41 22.19207 39.90827 29610 ft 349 kts 220°
2026-04-24 16:41 22.17099 39.89547 29087 ft 352 kts 201°
2026-04-24 16:41 22.14664 39.89181 28573 ft 360 kts 181°
2026-04-24 16:41 22.12201 39.89836 28065 ft 373 kts 162°
2026-04-24 16:42 22.09853 39.91051 27531 ft 374 kts 161°
2026-04-24 16:42 22.07469 39.92072 27052 ft 365 kts 171°
2026-04-24 16:42 22.05019 39.92715 26587 ft 361 kts 173°
2026-04-24 16:42 22.02579 39.93317 26122 ft 359 kts 173°
2026-04-24 16:43 22.00151 39.93908 25702 ft 356 kts 173°
2026-04-24 16:43 21.97729 39.94262 25292 ft 347 kts 184°
2026-04-24 16:43 21.95361 39.94211 24868 ft 343 kts 188°
2026-04-24 16:43 21.93068 39.93718 24413 ft 332 kts 206°
2026-04-24 16:44 21.91185 39.92399 24195 ft 318 kts 225°
2026-04-24 16:44 21.89891 39.90508 23897 ft 313 kts 244°
2026-04-24 16:44 21.89313 39.88261 23517 ft 315 kts 263°
2026-04-24 16:44 21.89466 39.85901 23053 ft 318 kts 274°
2026-04-24 16:45 21.89795 39.83529 22384 ft 323 kts 274°
2026-04-24 16:45 21.90123 39.81127 21832 ft 325 kts 274°
2026-04-24 16:45 21.90450 39.78715 21431 ft 323 kts 274°
2026-04-24 16:45 21.90764 39.76360 21048 ft 321 kts 274°
2026-04-24 16:46 21.91079 39.73994 20645 ft 318 kts 273°
2026-04-24 16:46 21.91391 39.71643 20257 ft 316 kts 273°
2026-04-24 16:46 21.91701 39.69300 19880 ft 314 kts 273°
2026-04-24 16:46 21.92009 39.66981 19491 ft 312 kts 273°
2026-04-24 16:47 21.92316 39.64671 19172 ft 309 kts 273°
2026-04-24 16:47 21.92619 39.62414 18690 ft 302 kts 273°
2026-04-24 16:47 21.92918 39.60187 18138 ft 299 kts 272°
2026-04-24 16:47 21.93213 39.57981 17508 ft 295 kts 273°
2026-04-24 16:48 21.93497 39.55825 16878 ft 293 kts 273°
2026-04-24 16:48 21.93781 39.53656 16317 ft 293 kts 273°
2026-04-24 16:48 21.94031 39.51485 15976 ft 290 kts 268°
2026-04-24 16:48 21.93887 39.49346 15644 ft 285 kts 255°
2026-04-24 16:49 21.93281 39.47334 15255 ft 283 kts 244°
2026-04-24 16:49 21.92421 39.45413 14836 ft 286 kts 243°
2026-04-24 16:49 21.91555 39.43485 14469 ft 286 kts 243°
2026-04-24 16:49 21.90692 39.41557 14138 ft 285 kts 244°
2026-04-24 16:50 21.90110 39.40253 13900 ft 286 kts 244°
2026-04-24 16:50 21.88973 39.37703 13452 ft 285 kts 244°
2026-04-24 16:50 21.88120 39.35790 13061 ft 281 kts 244°
2026-04-24 16:50 21.87273 39.33895 12407 ft 281 kts 244°
2026-04-24 16:51 21.86429 39.32002 11788 ft 280 kts 243°
2026-04-24 16:51 21.85586 39.30119 11176 ft 278 kts 244°
2026-04-24 16:51 21.84756 39.28263 10806 ft 268 kts 244°
2026-04-24 16:51 21.83970 39.26501 10565 ft 255 kts 244°
2026-04-24 16:52 21.83209 39.24795 10133 ft 251 kts 244°
2026-04-24 16:52 21.82266 39.23240 9652 ft 249 kts 221°
2026-04-24 16:52 21.80731 39.22493 9128 ft 251 kts 187°
2026-04-24 16:52 21.79005 39.22812 8530 ft 257 kts 164°
2026-04-24 16:53 21.77317 39.23465 7959 ft 257 kts 163°
2026-04-24 16:53 21.75641 39.24138 7432 ft 257 kts 162°
2026-04-24 16:53 21.73970 39.24814 7116 ft 255 kts 162°
2026-04-24 16:53 21.72317 39.25480 6793 ft 253 kts 162°
2026-04-24 16:54 21.70670 39.26139 6482 ft 252 kts 162°
2026-04-24 16:54 21.69033 39.26788 6159 ft 250 kts 162°
2026-04-24 16:54 21.67406 39.27431 5848 ft 248 kts 162°
2026-04-24 16:54 21.65796 39.28068 5549 ft 244 kts 162°
2026-04-24 16:55 21.64231 39.28687 5374 ft 236 kts 161°
2026-04-24 16:55 21.62709 39.29289 5097 ft 232 kts 161°
2026-04-24 16:55 21.61202 39.29880 4801 ft 228 kts 161°
2026-04-24 16:55 21.59720 39.30459 4554 ft 224 kts 161°
2026-04-24 16:56 21.58282 39.31022 4279 ft 222 kts 161°
2026-04-24 16:56 21.56835 39.31590 3954 ft 220 kts 161°
2026-04-24 16:56 21.55400 39.32154 3634 ft 219 kts 161°
2026-04-24 16:56 21.53974 39.32712 3346 ft 217 kts 161°
2026-04-24 16:57 21.52562 39.33264 3086 ft 215 kts 160°
2026-04-24 16:57 21.51150 39.33818 3028 ft 217 kts 160°
2026-04-24 16:57 21.49730 39.34374 3035 ft 217 kts 161°
2026-04-24 16:57 21.48315 39.34928 3038 ft 216 kts 161°
2026-04-24 16:58 21.46902 39.35480 3042 ft 215 kts 161°
2026-04-24 16:58 21.45499 39.36031 3044 ft 215 kts 161°
2026-04-24 16:58 21.44094 39.36584 3048 ft 215 kts 161°
2026-04-24 16:58 21.42688 39.37136 3049 ft 215 kts 161°
2026-04-24 16:59 21.41301 39.37678 3061 ft 215 kts 161°
2026-04-24 16:59 21.39898 39.38227 3056 ft 215 kts 161°
2026-04-24 16:59 21.37060 39.37954 3062 ft 223 kts 217°
2026-04-24 17:00 21.36178 39.36569 3064 ft 233 kts 248°
2026-04-24 17:00 21.36880 39.33180 3069 ft 247 kts 301°
2026-04-24 17:00 21.37873 39.31670 3061 ft 248 kts 303°
2026-04-24 17:01 21.40028 39.28774 3038 ft 251 kts 320°
2026-04-24 17:01 21.41574 39.27902 3035 ft 253 kts 339°
2026-04-24 17:02 21.44919 39.26605 3027 ft 256 kts 339°
2026-04-24 17:02 21.46589 39.25949 3022 ft 252 kts 339°
2026-04-24 17:02 21.48225 39.25305 3022 ft 249 kts 339°
2026-04-24 17:02 21.49822 39.24678 3017 ft 238 kts 339°
2026-04-24 17:03 21.52848 39.23487 2767 ft 229 kts 338°
2026-04-24 17:03 21.54349 39.22896 2488 ft 230 kts 339°
2026-04-24 17:03 21.55840 39.22310 2207 ft 225 kts 339°
2026-04-24 17:04 21.57276 39.21745 1924 ft 215 kts 339°
2026-04-24 17:04 21.59938 39.20697 1402 ft 192 kts 338°
2026-04-24 17:04 21.61150 39.20220 1170 ft 177 kts 339°
2026-04-24 17:05 21.62261 39.19783 933 ft 163 kts 339°
2026-04-24 17:05 21.63282 39.19381 748 ft 152 kts 338°
2026-04-24 17:05 21.65213 39.18613 395 ft 144 kts 338°
2026-04-24 17:06 21.66147 39.18241 212 ft 143 kts 339°
2026-04-24 17:06 21.67847 39.17574 33 ft 94 kts 339°
2026-04-24 17:06 21.68257 39.17402 28 ft 27 kts 325°
2026-04-24 17:07 21.68341 39.17308 26 ft 27 kts 308°
2026-04-24 17:07 21.68395 39.17230 27 ft 0 kts 308°
2026-04-24 17:09 21.68408 39.17212 27 ft 8 kts 308°
2026-04-24 17:09 21.68509 39.17039 27 ft 15 kts 251°
2026-04-24 17:10 21.68422 39.17014 28 ft 14 kts 160°
2026-04-24 17:10 21.68175 39.17112 29 ft 13 kts 159°
2026-04-24 17:11 21.68066 39.17155 30 ft 0 kts 160°